Back to catalog

STARLINK-37954

AliveCommunicationsSSO
NORAD 69558·PAYLOAD·🇺🇸 United States

Launched Jun 15, 2026 from Vandenberg Space Force Base

Loading…

Next Passes (next 24 hours)

TLE

FreshSource: CelesTrak SupGP

Epoch: Sep 14, 2026, 15:29 UTC

1 69558C 26135N   26257.64562500 -.00034501  00000+0 -10709-2 0  2570
2 69558  97.2837 285.4229 0001384  96.4139 260.1569 15.33459815    15

Track STARLINK-37954 in real time with AllMySat

Download on the App Store